GW2443 Weather Reports


time (UTC)temp
F
wind
direction
speed
knots
gust
knots
rain 1hr
in
rain 24hr
in
rain mn
in
humidity
%
barometer
mb
20260503225534 69 198 2.6 12.2 0.00 0.00 0.00 42 1003.7
20260503225031 69 195 3.5 12.2 0.00 0.00 0.00 42 1003.8
20260503224547 69 192 4.3 10.4 0.00 0.00 0.00 41 1003.7
20260503224030 69 210 3.5 8.7 0.00 0.00 0.00 40 1003.9
20260503223530 69 194 2.6 7.0 0.00 0.00 0.00 42 1003.9
20260503223046 69 249 2.6 8.7 0.00 0.00 0.00 43 1003.9
20260503222530 69 239 2.6 8.7 0.00 0.00 0.00 43 1003.8
20260503222030 69 221 3.5 8.7 0.00 0.00 0.00 41 1003.9
20260503221544 68 279 3.5 10.4 0.00 0.00 0.00 42 1003.9
20260503221031 68 269 4.3 10.4 0.00 0.00 0.00 41 1003.8
20260503220533 68 221 5.2 10.4 0.00 0.00 0.00 42 1003.9
20260503220049 69 205 3.5 11.3 0.00 0.00 0.00 41 1004.0
20260503215530 68 258 3.5 11.3 0.00 0.00 0.00 42 1004.0
20260503215031 69 163 2.6 11.3 0.00 0.00 0.00 42 1004.0
20260503214540 69 224 6.1 11.3 0.00 0.00 0.00 40 1004.0
20260503214031 69 194 3.5 9.6 0.00 0.00 0.00 43 1004.2
20260503213530 68 217 2.6 8.7 0.00 0.00 0.00 42 1004.2
20260503213042 68 268 3.5 9.6 0.00 0.00 0.00 42 1004.2
20260503212530 68 246 4.3 13.9 0.00 0.00 0.00 42 1004.1
20260503212031 68 272 3.5 14.8 0.00 0.00 0.00 44 1004.2
20260503211547 68 259 5.2 14.8 0.00 0.00 0.00 43 1004.3
20260503211031 68 246 3.5 12.2 0.00 0.00 0.00 43 1004.3
20260503210531 67 242 3.5 9.6 0.00 0.00 0.00 45 1004.3
20260503210050 67 286 4.3 9.6 0.00 0.00 0.00 42 1004.3
20260503205534 67 250 4.3 9.6 0.00 0.00 0.00 43 1004.3
20260503205031 67 207 3.5 9.6 0.00 0.00 0.00 44 1004.4
20260503204542 67 226 3.5 9.6 0.00 0.00 0.00 43 1004.5
20260503204030 67 275 3.5 13.9 0.00 0.00 0.00 44 1004.5
20260503203530 67 283 4.3 13.9 0.00 0.00 0.00 43 1004.5
20260503203041 67 266 5.2 13.9 0.00 0.00 0.00 42 1004.6
20260503202530 67 224 3.5 13.0 0.00 0.00 0.00 44 1004.9
20260503202030 66 228 6.1 13.0 0.00 0.00 0.00 44 1004.9
20260503201547 66 186 6.1 13.0 0.00 0.00 0.00 43 1005.0
20260503201030 66 223 4.3 13.0 0.00 0.00 0.00 44 1005.1
20260503200530 66 207 5.2 13.0 0.00 0.00 0.00 44 1005.1
20260503200050 66 194 4.3 13.0 0.00 0.00 0.00 46 1005.1
20260503195531 66 240 4.3 14.8 0.00 0.00 0.00 44 1005.3
20260503195031 66 234 4.3 16.5 0.00 0.00 0.00 44 1005.3
20260503194544 66 217 7.0 16.5 0.00 0.00 0.00 42 1005.3
20260503194031 66 217 6.1 16.5 0.00 0.00 0.00 43 1005.4
20260503193531 65 159 5.2 13.0 0.00 0.00 0.00 43 1005.5
20260503193048 66 205 6.1 15.6 0.00 0.00 0.00 43 1005.5
20260503192530 65 203 6.1 15.6 0.00 0.00 0.00 44 1005.6
20260503192032 65 192 6.1 13.9 0.00 0.00 0.00 43 1005.5
20260503191540 65 214 6.1 17.4 0.00 0.00 0.00 44 1005.5
20260503191030 65 211 6.1 17.4 0.00 0.00 0.00 45 1005.7
20260503190530 64 204 7.0 16.5 0.00 0.00 0.00 44 1005.7
20260503190041 65 236 5.2 20.9 0.00 0.00 0.00 45 1005.8
20260503185531 64 163 9.6 20.9 0.00 0.00 0.00 44 1005.9
20260503185030 64 219 5.2 16.5 0.00 0.00 0.00 46 1005.8
20260503184600 64 195 7.0 16.5 0.00 0.00 0.00 44 1005.9
20260503184031 64 216 7.0 15.6 0.00 0.00 0.00 46 1005.9
20260503183531 63 154 7.0 18.2 0.00 0.00 0.00 47 1005.9
20260503183055 63 230 7.8 18.2 0.00 0.00 0.00 48 1006.2
20260503182533 63 222 7.0 18.2 0.00 0.00 0.00 49 1006.2
20260503182031 63 239 4.3 17.4 0.00 0.00 0.00 49 1006.2
20260503181541 62 171 7.8 17.4 0.00 0.00 0.00 48 1006.2
20260503181030 62 242 8.7 18.2 0.00 0.00 0.00 49 1006.3
20260503180529 62 222 7.0 18.2 0.00 0.00 0.00 50 1006.4
20260503180040 62 215 7.0 15.6 0.00 0.00 0.00 49 1006.4
20260503175530 61 188 5.2 18.2 0.00 0.00 0.00 50 1006.8
20260503175034 61 232 7.8 18.2 0.00 0.00 0.00 48 1006.9
20260503174547 61 230 7.8 18.2 0.00 0.00 0.00 48 1006.8
20260503174031 61 196 7.8 19.1 0.00 0.00 0.00 48 1006.8
20260503173531 61 246 7.8 19.1 0.00 0.00 0.00 48 1006.9
20260503173055 62 201 7.0 15.6 0.00 0.00 0.00 48 1006.9
20260503172531 61 202 6.1 19.1 0.00 0.00 0.00 48 1006.9
20260503172031 61 229 7.8 19.1 0.00 0.00 0.00 47 1007.0
20260503171542 61 191 7.0 17.4 0.00 0.00 0.00 48 1007.0
20260503171033 61 258 7.8 18.2 0.00 0.00 0.00 49 1007.1
20260503170531 61 207 5.2 18.2 0.00 0.00 0.00 53 1007.2
20260503150530 52 235 5.2 10.4 0.00 0.00 0.00 72 1008.7
20260503131030 52 198 3.5 13.0 0.00 0.00 0.00 63 1010.0
20260503130529 52 240 5.2 13.0 0.00 0.00 0.00 62 1010.0
20260503110531 48 233 1.7 7.8 0.00 0.00 0.00 56 1010.3
20260503081610 47 213 1.7 7.0 0.00 0.00 0.00 54 1011.6
20260503081029 47 206 2.6 7.0 0.00 0.00 0.00 54 1011.6
20260503080530 47 220 1.7 7.0 0.00 0.00 0.00 55 1011.6
20260503072530 46 208 1.7 7.0 0.00 0.00 0.00 54 1011.9
20260503072031 46 221 1.7 7.0 0.00 0.00 0.00 54 1011.9
20260503071540 46 192 2.6 7.0 0.00 0.00 0.00 54 1011.9
20260503071029 46 223 2.6 7.0 0.00 0.00 0.00 54 1011.9
20260503070529 46 191 1.7 7.0 0.00 0.00 0.00 54 1011.9
20260503055029 48 0 0.9 6.1 0.00 0.00 0.00 50 1012.5
20260503054547 48 211 1.7 6.1 0.00 0.00 0.00 50 1012.6
20260503054031 48 202 1.7 5.2 0.00 0.00 0.00 50 1012.7
20260503053529 48 217 1.7 4.3 0.00 0.00 0.00 50 1012.6
20260503053046 48 214 1.7 4.3 0.00 0.00 0.00 49 1012.7
20260503052530 48 217 0.9 5.2 0.00 0.00 0.00 49 1012.7
20260503052030 49 192 1.7 6.1 0.00 0.00 0.00 49 1012.7
20260503051541 49 208 1.7 6.1 0.00 0.00 0.00 48 1012.9
20260503051029 49 225 1.7 4.3 0.00 0.00 0.00 48 1012.9
20260503050531 49 205 1.7 6.1 0.00 0.00 0.00 48 1013.0
20260503050043 49 213 1.7 6.1 0.00 0.00 0.00 48 1012.9
20260503045533 49 0 1.7 6.1 0.00 0.00 0.00 48 1012.9
20260503045028 49 0 0.9 4.3 0.00 0.00 0.00 48 1013.0
20260503044543 49 217 1.7 6.1 0.00 0.00 0.00 48 1013.0
20260503044029 49 202 1.7 6.1 0.00 0.00 0.00 48 1013.0
20260503043529 49 202 1.7 6.1 0.00 0.00 0.00 48 1013.1
20260503043043 49 222 1.7 6.1 0.00 0.00 0.00 48 1013.1
20260503042529 49 0 1.7 6.1 0.00 0.00 0.00 48 1013.1
20260503042029 48 213 1.7 5.2 0.00 0.00 0.00 48 1013.1
20260503041548 48 209 1.7 4.3 0.00 0.00 0.00 48 1013.2
20260503041028 48 171 0.9 4.3 0.00 0.00 0.00 48 1013.2
20260503040529 48 202 1.7 5.2 0.00 0.00 0.00 48 1013.4
20260503040048 48 213 0.9 5.2 0.00 0.00 0.00 48 1013.4
20260503035530 48 224 1.7 5.2 0.00 0.00 0.00 48 1013.5
20260503035029 48 236 1.7 5.2 0.00 0.00 0.00 48 1013.6
20260503034548 48 202 0.9 5.2 0.00 0.00 0.00 48 1013.4
20260503034030 48 221 1.7 5.2 0.00 0.00 0.00 47 1013.6
20260503033528 48 214 1.7 4.3 0.00 0.00 0.00 47 1013.5
20260503033058 48 237 0.9 4.3 0.00 0.00 0.00 47 1013.6
20260503032529 48 360 0.9 4.3 0.00 0.00 0.00 48 1013.6
20260503032030 49 202 0.9 4.3 0.00 0.00 0.00 48 1013.6
20260503031556 49 186 0.9 4.3 0.00 0.00 0.00 48 1013.7
20260503031031 49 200 0.9 3.5 0.00 0.00 0.00 47 1013.6
20260503030530 49 201 0.0 2.6 0.00 0.00 0.00 48 1013.7
20260503030049 49 186 0.9 2.6 0.00 0.00 0.00 47 1013.8
20260503025529 49 221 0.9 3.5 0.00 0.00 0.00 47 1013.8
20260503025029 49 200 0.9 3.5 0.00 0.00 0.00 47 1013.9
20260503024556 49 192 0.9 2.6 0.00 0.00 0.00 47 1013.8
20260503024032 49 207 0.9 2.6 0.00 0.00 0.00 47 1013.8
20260503023528 50 222 0.9 2.6 0.00 0.00 0.00 48 1013.8
20260503023042 50 199 0.0 2.6 0.00 0.00 0.00 47 1013.8
20260503022529 50 205 0.0 2.6 0.00 0.00 0.00 47 1013.8
20260503022032 50 209 0.9 2.6 0.00 0.00 0.00 46 1013.8
20260503021551 50 229 0.0 2.6 0.00 0.00 0.00 46 1013.8
20260503021029 51 0 0.0 1.7 0.00 0.00 0.00 45 1013.8
20260503020530 51 0 0.0 2.6 0.00 0.00 0.00 44 1013.6
20260503020046 51 211 0.9 2.6 0.00 0.00 0.00 44 1013.7
20260503015530 52 220 0.9 2.6 0.00 0.00 0.00 43 1013.6
20260503015029 52 195 0.0 2.6 0.00 0.00 0.00 43 1013.5
20260503014546 52 0 0.9 3.5 0.00 0.00 0.00 42 1013.6
20260503014029 52 218 0.9 3.5 0.00 0.00 0.00 41 1013.6
20260503013529 53 207 0.9 3.5 0.00 0.00 0.00 41 1013.5
20260503013047 53 213 0.9 2.6 0.00 0.00 0.00 40 1013.6
20260503012529 53 223 0.9 2.6 0.00 0.00 0.00 40 1013.4
20260503012031 53 0 0.0 2.6 0.00 0.00 0.00 40 1013.5
20260503011546 54 218 0.9 1.7 0.00 0.00 0.00 39 1013.4
20260503011031 54 209 0.0 2.6 0.00 0.00 0.00 39 1013.4
20260503010531 54 0 0.0 2.6 0.00 0.00 0.00 38 1013.4
20260503010048 54 0 0.9 3.5 0.00 0.00 0.00 39 1013.5
20260503005531 55 0 0.0 3.5 0.00 0.00 0.00 38 1013.5
20260503005032 55 207 0.0 3.5 0.00 0.00 0.00 38 1013.5
20260503004547 55 215 0.9 3.5 0.00 0.00 0.00 37 1013.4
20260503004030 56 219 0.0 5.2 0.00 0.00 0.00 37 1013.4
20260503003530 56 255 0.0 5.2 0.00 0.00 0.00 36 1013.4
20260503003059 56 175 0.9 5.2 0.00 0.00 0.00 36 1013.4
20260503002530 56 247 1.7 5.2 0.00 0.00 0.00 35 1013.5
20260503002033 57 233 1.7 6.1 0.00 0.00 0.00 35 1013.6
20260503001550 57 207 1.7 8.7 0.00 0.00 0.00 34 1013.5
20260503001032 57 246 1.7 8.7 0.00 0.00 0.00 35 1013.6
20260503000533 57 263 2.6 9.6 0.00 0.00 0.00 35 1013.6
20260503000051 57 240 2.6 9.6 0.00 0.00 0.00 35 1013.7
20260502235530 57 221 1.7 6.1 0.00 0.00 0.00 35 1013.8
20260502235030 57 234 1.7 6.1 0.00 0.00 0.00 34 1013.8
20260502234541 56 238 0.9 7.8 0.00 0.00 0.00 37 1013.9
20260502234028 57 250 0.9 7.8 0.00 0.00 0.00 36 1014.0
20260502233531 57 0 1.7 7.8 0.00 0.00 0.00 34 1014.0
20260502233058 57 249 0.9 8.7 0.00 0.00 0.00 35 1014.0
20260502232531 57 258 2.6 8.7 0.00 0.00 0.00 34 1014.0
20260502232031 57 207 1.7 7.0 0.00 0.00 0.00 34 1014.0
20260502231600 57 227 1.7 9.6 0.00 0.00 0.00 33 1014.1
20260502231031 57 265 3.5 9.6 0.00 0.00 0.00 34 1014.0
20260502230531 57 248 3.5 9.6 0.00 0.00 0.00 33 1014.1
20260502230044 58 262 2.6 7.8 0.00 0.00 0.00 34 1014.2